DG4DAA-13 Weather Reports


Display with metric or nautical units.
time (UTC)temp
F
wind
direction
speed
MPH
gust
MPH
rain 1hr
in
rain 24hr
in
rain mn
in
humidity
%
barometer
mb
20260506100817 47 270 0.0 0.0 0.01 1.66 1.03 93 1009.0
20260506093817 47 311 0.0 2.0 0.01 1.65 1.02 93 1008.8
20260506090818 48 306 0.0 1.0 0.03 1.65 1.02 93 1008.4
20260506083818 49 259 0.0 0.0 0.05 1.64 1.01 94 1008.1
20260506080818 48 270 0.0 0.0 0.05 1.62 0.99 94 1008.0
20260506070818 48 281 0.0 0.0 0.10 1.57 0.94 94 1007.7
20260506060818 48 304 0.0 0.0 0.05 1.47 0.84 94 1007.4
20260506050823 48 4 0.0 0.0 0.12 1.42 0.79 94 1007.4
20260506050818 48 4 0.0 0.0 0.12 1.42 0.79 94 1007.4
20260506043832 48 304 0.0 0.0 0.05 1.33 0.70 94 1007.4
20260506043818 48 304 0.0 0.0 0.05 1.33 0.70 94 1007.4
20260506040818 49 276 0.0 0.0 0.05 1.30 0.67 94 1007.3
20260506033818 49 10 0.0 1.0 0.05 1.28 0.65 93 1007.3
20260506030818 49 273 0.0 1.0 0.05 1.25 0.62 93 1007.4
20260506023818 50 332 0.0 0.0 0.10 1.23 0.60 93 1007.7
20260506020818 51 337 0.0 0.0 0.13 1.20 0.57 94 1007.8
20260506013818 51 24 0.0 0.0 0.10 1.13 0.50 93 1008.0
20260506010818 51 280 0.0 2.0 0.10 1.07 0.44 93 1008.0
20260506003838 51 319 0.0 0.0 0.14 1.03 0.40 93 1008.2
20260506003819 51 319 0.0 0.0 0.14 1.03 0.40 93 1008.2
20260506000819 52 4 0.0 0.0 0.16 0.97 0.34 93 1008.4
20260505233841 52 229 0.0 0.0 0.15 0.89 0.26 93 1008.8
20260505233819 52 229 0.0 0.0 0.15 0.89 0.26 93 1008.8
20260505230819 52 271 0.0 0.0 0.17 0.81 0.18 93 1009.0
20260505223830 52 324 0.0 0.0 0.16 0.74 0.11 93 1009.2
20260505223819 52 324 0.0 0.0 0.16 0.74 0.11 93 1009.2
20260505220830 52 261 0.0 0.0 0.18 0.66 0.02 93 1009.3
20260505220819 52 261 0.0 0.0 0.18 0.66 0.02 93 1009.3
20260505213819 52 281 0.0 0.0 0.18 0.59 0.59 92 1009.5
20260505210819 52 169 0.0 0.0 0.12 0.49 0.48 92 1009.6
20260505203853 53 278 0.0 0.0 0.14 0.42 0.41 91 1009.8
20260505203819 53 278 0.0 0.0 0.14 0.42 0.41 91 1009.8
20260505200819 53 250 0.0 0.0 0.14 0.37 0.36 90 1009.8
20260505193819 53 263 0.0 0.0 0.11 0.28 0.27 89 1009.9
20260505190827 53 31 0.0 0.0 0.06 0.24 0.22 88 1009.9
20260505190819 53 31 0.0 0.0 0.06 0.24 0.22 88 1009.9
20260505183819 54 247 0.0 0.0 0.00 0.18 0.16 87 1009.9
20260505180819 54 271 0.0 0.0 0.00 0.19 0.16 87 1010.0
20260505173819 54 263 0.0 0.0 0.00 0.19 0.16 86 1009.9
20260505170819 55 234 0.0 0.0 0.00 0.22 0.16 85 1010.0
20260505163819 56 25 0.0 1.0 0.00 0.22 0.16 85 1010.1
20260505160820 56 333 0.0 0.0 0.00 0.22 0.16 85 1010.2
20260505150820 56 335 0.0 1.0 0.00 0.22 0.16 87 1010.4
20260505123820 57 259 0.0 0.0 0.13 0.20 0.14 89 1011.1
20260505120823 57 34 0.0 1.0 0.09 0.16 0.10 89 1011.2
20260505113820 59 289 0.0 1.0 0.00 0.07 0.01 85 1011.3
20260505110820 60 32 0.0 1.0 0.00 0.07 0.01 83 1011.1